Radiation Dose at Monitoring Post of Fukushima Daini Nuclear Power Station
Date,Time,MP-1(microSv/h),MP-2(microSv/h),MP-3(microSv/h),MP-4(microSv/h),MP-5(microSv/h),MP-6(microSv/h),MP-7(microSv/h),Wind Direction,Wind Velocity(m/s),Rain
2015/12/04,00:00,0.457,0.270,0.483,0.437,0.420,0.222,0.197,north,2.2,No
2015/12/04,00:10,0.457,0.270,0.482,0.436,0.421,0.222,0.195,north,3.7,No
2015/12/04,00:20,0.458,0.271,0.483,0.439,0.421,0.222,0.196,west-northwest,4.1,No
2015/12/04,00:30,0.458,0.270,0.485,0.437,0.419,0.222,0.196,northwest,3.0,No
2015/12/04,00:40,0.456,0.270,0.481,0.438,0.422,0.222,0.197,north-northwest,3.5,No
2015/12/04,00:50,0.457,0.271,0.482,0.438,0.420,0.221,0.196,northwest,3.4,No
2015/12/04,01:00,0.456,0.271,0.484,0.437,0.419,0.222,0.196,west-northwest,1.6,No
2015/12/04,01:10,0.458,0.269,0.481,0.438,0.421,0.221,0.198,west,4.8,No
2015/12/04,01:20,0.458,0.270,0.482,0.438,0.420,0.221,0.196,west,6.2,No
2015/12/04,01:30,0.456,0.270,0.481,0.437,0.421,0.221,0.197,west-southwest,7.4,No
2015/12/04,01:40,0.456,0.270,0.481,0.438,0.421,0.221,0.198,west-northwest,6.2,No
2015/12/04,01:50,0.458,0.270,0.484,0.437,0.421,0.221,0.197,west,8.1,No
2015/12/04,02:00,0.456,0.271,0.482,0.438,0.420,0.222,0.197,west,8.3,No
2015/12/04,02:10,0.456,0.270,0.482,0.438,0.421,0.221,0.198,southwest,7.0,No
2015/12/04,02:20,0.459,0.270,0.485,0.439,0.421,0.222,0.197,southwest,5.2,No
2015/12/04,02:30,0.456,0.270,0.481,0.437,0.421,0.222,0.197,southwest,3.7,No
2015/12/04,02:40,0.457,0.271,0.481,0.437,0.422,0.221,0.197,west-southwest,6.4,No
2015/12/04,02:50,0.458,0.270,0.485,0.439,0.421,0.221,0.197,west,7.9,No
2015/12/04,03:00,0.455,0.269,0.481,0.437,0.420,0.223,0.198,west,12.3,No
2015/12/04,03:10,0.457,0.271,0.481,0.438,0.421,0.222,0.197,west-northwest,8.8,No
2015/12/04,03:20,0.459,0.271,0.484,0.438,0.423,0.223,0.197,west,10.6,No
2015/12/04,03:30,0.456,0.270,0.483,0.439,0.422,0.222,0.196,west,10.1,No
2015/12/04,03:40,0.456,0.270,0.483,0.437,0.419,0.221,0.197,west,9.8,No
2015/12/04,03:50,0.457,0.270,0.484,0.438,0.420,0.222,0.197,west,8.5,No
2015/12/04,04:00,0.456,0.269,0.483,0.439,0.421,0.221,0.197,west-southwest,6.6,No
2015/12/04,04:10,0.457,0.269,0.482,0.437,0.419,0.223,0.198,west-southwest,6.1,No
2015/12/04,04:20,0.456,0.270,0.486,0.439,0.420,0.224,0.196,west-southwest,7.0,No
2015/12/04,04:30,0.457,0.269,0.483,0.438,0.422,0.223,0.197,west-southwest,6.0,No
2015/12/04,04:40,0.455,0.268,0.482,0.438,0.420,0.222,0.197,west-southwest,7.6,No
2015/12/04,04:50,0.456,0.269,0.483,0.439,0.420,0.223,0.197,west-southwest,8.2,No
2015/12/04,05:00,0.455,0.270,0.483,0.438,0.420,0.222,0.197,west-southwest,8.6,No
2015/12/04,05:10,0.456,0.270,0.482,0.437,0.420,0.222,0.197,west-southwest,10.6,No
2015/12/04,05:20,0.460,0.270,0.487,0.438,0.420,0.222,0.197,west-southwest,9.8,No
2015/12/04,05:30,0.458,0.270,0.482,0.438,0.422,0.221,0.196,west,8.1,No
2015/12/04,05:40,0.456,0.269,0.482,0.437,0.422,0.222,0.197,west-southwest,9.5,No
2015/12/04,05:50,0.456,0.269,0.483,0.437,0.419,0.223,0.197,west-southwest,7.7,No
2015/12/04,06:00,0.456,0.269,0.482,0.438,0.419,0.222,0.196,west,7.8,No
2015/12/04,06:10,0.456,0.271,0.482,0.437,0.422,0.221,0.197,west,9.5,No
2015/12/04,06:20,0.457,0.270,0.486,0.437,0.421,0.222,0.197,west,7.4,No
2015/12/04,06:30,0.456,0.269,0.483,0.438,0.421,0.222,0.198,west,7.3,No
2015/12/04,06:40,0.456,0.270,0.482,0.437,0.421,0.222,0.196,west,8.8,No
2015/12/04,06:50,0.457,0.270,0.485,0.438,0.420,0.223,0.198,west,10.1,No
2015/12/04,07:00,0.457,0.269,0.484,0.438,0.420,0.223,0.196,west-northwest,11.4,No
2015/12/04,07:10,0.456,0.270,0.482,0.436,0.420,0.222,0.198,west-northwest,11.1,No
2015/12/04,07:20,0.456,0.270,0.485,0.437,0.422,0.223,0.197,west,11.2,No
2015/12/04,07:30,0.458,0.269,0.486,0.438,0.421,0.223,0.198,west,10.0,No
2015/12/04,07:40,0.457,0.271,0.482,0.439,0.419,0.223,0.197,west-northwest,9.5,No
2015/12/04,07:50,0.458,0.271,0.485,0.436,0.421,0.222,0.197,west-northwest,9.3,No
2015/12/04,08:00,0.460,0.272,0.484,0.439,0.421,0.224,0.197,west,9.8,No
2015/12/04,08:10,0.458,0.271,0.483,0.436,0.422,0.223,0.196,west,10.7,Yes
2015/12/04,08:20,0.459,0.270,0.485,0.438,0.421,0.222,0.197,west,8.3,No
2015/12/04,08:30,0.458,0.271,0.483,0.438,0.422,0.223,0.196,west,8.8,No
2015/12/04,08:40,0.456,0.271,0.484,0.435,0.421,0.223,0.197,west,11.2,No
2015/12/04,08:50,0.460,0.270,0.488,0.437,0.422,0.223,0.198,west,8.6,No
2015/12/04,09:00,0.457,0.271,0.485,0.436,0.423,0.223,0.197,west,11.1,No
2015/12/04,09:10,0.458,0.270,0.483,0.439,0.421,0.225,0.197,west,10.6,No
2015/12/04,09:20,0.460,0.269,0.487,0.438,0.423,0.224,0.197,west,12.2,No
2015/12/04,09:30,0.457,0.270,0.484,0.440,0.420,0.224,0.198,west-southwest,12.6,No
2015/12/04,09:40,0.457,0.270,0.484,0.438,0.421,0.224,0.197,west,14.4,No
2015/12/04,09:50,0.459,0.270,0.487,0.440,0.422,0.224,-,west,13.3,No
2015/12/04,10:00,0.457,0.269,0.484,0.438,0.422,0.224,-,west-northwest,9.0,No
2015/12/04,10:10,0.458,0.270,0.487,0.439,0.423,0.224,-,west-southwest,12.0,No
2015/12/04,10:20,0.455,0.272,0.486,0.441,0.421,0.224,-,west,13.3,No
2015/12/04,10:30,0.457,0.271,0.483,0.439,0.425,0.224,-,west,11.2,No
2015/12/04,10:40,0.458,0.270,0.486,0.441,0.424,0.224,-,west,10.6,No
2015/12/04,10:50,0.458,0.272,0.484,0.439,0.423,0.225,-,west-northwest,7.1,No
2015/12/04,11:00,0.462,0.273,0.486,0.442,0.426,0.223,-,west,8.5,No
2015/12/04,11:10,0.458,0.272,0.489,0.440,0.421,0.223,-,west,7.5,No
2015/12/04,11:20,0.460,0.271,0.484,0.440,0.425,0.225,-,west,7.4,No
2015/12/04,11:30,0.459,0.272,0.487,0.441,0.421,0.226,-,west,6.1,No
2015/12/04,11:40,0.457,0.272,0.483,0.440,0.425,0.226,-,west,8.4,No
2015/12/04,11:50,0.462,0.271,0.487,0.442,0.425,0.225,-,west,7.5,Yes
2015/12/04,12:00,0.457,0.272,0.485,0.438,0.424,0.225,-,west,15.3,No
2015/12/04,12:10,0.460,0.271,0.485,0.442,0.424,0.225,-,west,8.1,No
2015/12/04,12:20,0.457,0.274,0.486,0.440,0.422,0.225,-,southwest,9.5,No
2015/12/04,12:30,0.458,0.271,0.484,0.440,0.426,0.225,-,west-southwest,11.1,No
2015/12/04,12:40,0.460,0.272,0.488,0.439,0.423,0.226,-,west-southwest,9.6,Yes
2015/12/04,12:50,0.460,0.273,0.486,0.443,0.428,0.227,-,west-southwest,11.5,No
2015/12/04,13:00,0.463,0.274,0.491,0.443,0.426,0.228,-,west,7.5,No
2015/12/04,13:10,0.461,0.275,0.487,0.441,0.426,0.226,-,west-southwest,6.7,No
2015/12/04,13:20,0.462,0.270,0.487,0.443,0.427,0.226,-,west-southwest,7.4,No
2015/12/04,13:30,0.460,0.274,0.485,0.440,0.422,0.226,-,southwest,7.6,No
2015/12/04,13:40,0.459,0.272,0.487,0.443,0.425,0.226,-,southwest,9.5,Yes
2015/12/04,13:50,0.462,0.272,0.488,0.440,0.426,0.226,-,west-southwest,9.8,No
2015/12/04,14:00,0.460,0.273,0.487,0.444,0.423,0.225,-,west-southwest,6.9,No
2015/12/04,14:10,0.461,0.271,0.489,0.441,0.427,0.226,-,west-southwest,6.3,No
2015/12/04,14:20,0.459,0.272,0.486,0.443,0.423,0.225,-,west-southwest,10.1,No
2015/12/04,14:30,0.459,0.272,0.487,0.442,0.423,0.225,-,west-southwest,11.4,Yes
2015/12/04,14:40,0.463,0.273,0.489,0.442,0.425,0.226,-,west-southwest,11.2,No
2015/12/04,14:50,0.461,0.275,0.487,0.444,0.426,0.226,-,west-southwest,9.3,Yes
2015/12/04,15:00,0.461,0.274,0.490,0.443,0.425,0.227,0.198,west-southwest,4.9,No
2015/12/04,15:10,0.463,0.274,0.487,0.443,0.426,0.226,0.197,west,4.3,No
2015/12/04,15:20,0.461,0.275,0.489,0.446,0.424,0.227,0.197,west,3.7,No
2015/12/04,15:30,0.461,0.274,0.488,0.442,0.425,0.225,0.197,west-southwest,4.8,No
2015/12/04,15:40,0.460,0.273,0.487,0.444,0.424,0.225,0.197,west-southwest,8.7,Yes
2015/12/04,15:50,0.462,0.275,0.490,0.443,0.423,0.227,0.197,west-southwest,11.5,No
2015/12/04,16:00,0.463,0.272,0.487,0.442,0.426,0.227,0.198,west,9.5,No
2015/12/04,16:10,0.461,0.276,0.489,0.445,0.426,0.225,0.197,west-southwest,9.2,No
2015/12/04,16:20,0.460,0.274,0.490,0.442,0.424,0.226,0.198,west-southwest,8.1,No
2015/12/04,16:30,0.464,0.272,0.488,0.442,0.423,0.227,0.198,west-southwest,8.5,No
2015/12/04,16:40,0.460,0.274,0.488,0.443,0.423,0.226,0.198,west-southwest,10.1,No
2015/12/04,16:50,0.462,0.273,0.487,0.444,0.424,0.226,0.198,west,12.6,No
2015/12/04,17:00,0.462,0.273,0.486,0.442,0.425,0.228,0.197,west,8.7,No
2015/12/04,17:10,0.461,0.273,0.489,0.445,0.425,0.226,0.198,west,11.5,No
2015/12/04,17:20,0.462,0.272,0.489,0.445,0.424,0.226,0.199,west,12.5,No
2015/12/04,17:30,0.463,0.274,0.489,0.444,0.424,0.228,0.198,west-southwest,9.6,No
2015/12/04,17:40,0.460,0.274,0.491,0.445,0.426,0.228,0.198,west,10.1,Yes
2015/12/04,17:50,0.461,0.273,0.489,0.444,0.424,0.227,0.197,west-southwest,10.6,Yes
2015/12/04,18:00,0.463,0.273,0.487,0.443,0.424,0.227,0.198,west-southwest,11.8,Yes
2015/12/04,18:10,0.461,0.272,0.490,0.445,0.424,0.227,0.197,west-southwest,12.3,No
2015/12/04,18:20,0.461,0.274,0.490,0.443,0.423,0.225,0.197,west,10.3,No
2015/12/04,18:30,0.461,0.271,0.488,0.441,0.425,0.226,0.197,west,9.8,No
2015/12/04,18:40,0.461,0.272,0.489,0.442,0.424,0.225,0.197,west,11.8,No
2015/12/04,18:50,0.461,0.272,0.491,0.444,0.426,0.226,0.197,west,11.7,No
2015/12/04,19:00,0.460,0.273,0.486,0.441,0.423,0.224,0.196,west,11.5,No
2015/12/04,19:10,0.459,0.272,0.490,0.441,0.423,0.226,0.196,west,12.2,No
2015/12/04,19:20,0.458,0.271,0.489,0.443,0.424,0.225,0.197,west,9.6,No
2015/12/04,19:30,0.462,0.271,0.487,0.439,0.423,0.225,0.197,west,10.9,No
2015/12/04,19:40,0.460,0.272,0.489,0.439,0.422,0.225,0.197,west,10.4,No
2015/12/04,19:50,0.459,0.271,0.488,0.441,0.424,0.225,0.197,west-northwest,10.4,No
2015/12/04,20:00,0.464,0.272,0.486,0.441,0.423,0.225,0.197,west-northwest,10.9,Yes
2015/12/04,20:10,0.460,0.273,0.490,0.441,0.422,0.226,0.197,west,11.5,No
2015/12/04,20:20,0.462,0.273,0.490,0.442,0.423,0.225,0.197,west,9.6,No
2015/12/04,20:30,0.463,0.273,0.488,0.442,0.423,0.225,0.198,west-northwest,9.8,Yes
2015/12/04,20:40,0.462,0.272,0.488,0.441,0.424,0.226,0.197,west,11.5,Yes
2015/12/04,20:50,0.460,0.274,0.491,0.442,0.423,0.226,0.198,west-northwest,10.9,Yes
2015/12/04,21:00,0.460,0.274,0.489,0.442,0.424,0.227,0.199,west,11.4,No
2015/12/04,21:10,0.462,0.274,0.490,0.442,0.424,0.226,0.196,west,10.1,Yes
2015/12/04,21:20,0.461,0.274,0.489,0.441,0.424,0.225,0.198,west,10.3,No
2015/12/04,21:30,0.461,0.273,0.489,0.442,0.422,0.226,0.198,west-northwest,10.4,No
2015/12/04,21:40,0.462,0.273,0.487,0.444,0.424,0.224,0.196,west,10.4,Yes
2015/12/04,21:50,0.461,0.273,0.490,0.440,0.424,0.225,0.197,west,10.0,Yes
2015/12/04,22:00,0.460,0.273,0.490,0.442,0.420,0.225,0.196,west,9.3,No
2015/12/04,22:10,0.461,0.272,0.489,0.444,0.422,0.225,0.197,west,8.1,No
2015/12/04,22:20,0.461,0.272,0.487,0.441,0.423,0.224,0.196,west-southwest,5.9,No
2015/12/04,22:30,0.460,0.272,0.488,0.441,0.422,0.224,0.196,west,7.7,No
2015/12/04,22:40,0.458,0.272,0.487,0.440,0.421,0.224,0.196,west-southwest,6.4,No
2015/12/04,22:50,0.460,0.272,0.486,0.441,0.422,0.223,0.196,west-southwest,7.7,No
2015/12/04,23:00,0.457,0.272,0.487,0.439,0.424,0.224,0.196,west-southwest,7.1,No
2015/12/04,23:10,0.458,0.271,0.487,0.439,0.420,0.223,0.195,west-southwest,7.9,No
2015/12/04,23:20,0.461,0.270,0.484,0.441,0.421,0.223,0.196,west-southwest,6.3,No
2015/12/04,23:30,0.460,0.272,0.488,0.440,0.421,0.223,0.194,west-southwest,8.4,No
2015/12/04,23:40,0.458,0.270,0.486,0.441,0.421,0.224,0.196,west-southwest,8.4,No
2015/12/04,23:50,0.460,0.270,0.485,0.440,0.421,0.223,0.195,west-southwest,11.1,No
